TimeEDT,TemperatureF,Dew PointF,Humidity,Sea Level PressureIn,VisibilityMPH,Wind Direction,Wind SpeedMPH,Gust SpeedMPH,PrecipitationIn,Events,Conditions,WindDirDegrees,DateUTC
12:54 AM,69.1,66.9,93,29.88,-9999.0,East,4.6,-,N/A,,Unknown,90,2013-07-23 04:54:00
1:54 AM,69.1,66.9,93,29.86,-9999.0,ESE,5.8,-,N/A,,Unknown,110,2013-07-23 05:54:00
2:54 AM,69.1,66.9,93,29.83,-9999.0,ESE,3.5,-,N/A,,Unknown,120,2013-07-23 06:54:00
3:54 AM,69.1,66.9,93,29.81,-9999.0,ESE,5.8,-,N/A,,Unknown,110,2013-07-23 07:54:00
4:54 AM,69.1,68.0,96,29.78,-9999.0,East,6.9,-,N/A,,Unknown,100,2013-07-23 08:54:00
5:54 AM,69.1,68.0,96,29.77,-9999.0,East,8.1,-,0.02,,Unknown,100,2013-07-23 09:54:00
6:54 AM,70.0,68.0,93,29.75,-9999.0,ESE,8.1,-,0.04,,Unknown,120,2013-07-23 10:54:00
7:54 AM,71.1,69.1,93,29.73,-9999.0,SE,8.1,-,0.03,,Unknown,140,2013-07-23 11:54:00
8:54 AM,72.0,70.0,93,29.70,-9999.0,SE,10.4,-,0.11,,Unknown,140,2013-07-23 12:54:00
9:54 AM,73.0,71.1,93,29.69,-9999.0,SSE,9.2,-,0.03,,Unknown,150,2013-07-23 13:54:00
10:54 AM,73.0,71.1,93,29.67,-9999.0,South,9.2,-,0.07,,Unknown,180,2013-07-23 14:54:00
11:54 AM,78.1,73.9,87,29.65,-9999.0,South,6.9,18.4,N/A,,Unknown,170,2013-07-23 15:54:00
12:54 PM,78.1,73.0,84,29.62,-9999.0,South,9.2,-,N/A,,Unknown,170,2013-07-23 16:54:00
1:43 PM,73.0,70.0,90,29.60,-9999.0,SW,9.2,21.9,0.27,,Unknown,230,2013-07-23 17:43:00
1:54 PM,75.0,72.0,90,29.62,-9999.0,SSW,5.8,-,0.27,,Unknown,210,2013-07-23 17:54:00
2:54 PM,78.1,73.9,87,29.60,-9999.0,NNW,5.8,-,N/A,,Unknown,330,2013-07-23 18:54:00
3:54 PM,82.9,73.9,74,29.58,-9999.0,SSW,9.2,-,N/A,,Unknown,200,2013-07-23 19:54:00
4:54 PM,73.0,68.0,84,29.59,-9999.0,NW,13.8,26.5,N/A,,Unknown,320,2013-07-23 20:54:00
5:54 PM,72.0,69.1,91,29.59,-9999.0,SW,10.4,-,0.24,,Unknown,220,2013-07-23 21:54:00
6:54 PM,72.0,69.1,91,29.61,-9999.0,South,6.9,-,0.01,,Unknown,170,2013-07-23 22:54:00
7:54 PM,71.1,69.1,93,29.62,-9999.0,WSW,6.9,-,0.01,,Unknown,250,2013-07-23 23:54:00
8:54 PM,71.1,69.1,93,29.63,-9999.0,West,6.9,-,N/A,,Unknown,270,2013-07-24 00:54:00
9:54 PM,71.1,69.1,93,29.64,-9999.0,WNW,6.9,-,N/A,,Unknown,290,2013-07-24 01:54:00
10:54 PM,71.1,69.1,93,29.63,-9999.0,West,4.6,-,N/A,,Unknown,280,2013-07-24 02:54:00
11:54 PM,71.1,69.1,93,29.64,-9999.0,WSW,5.8,-,N/A,,Unknown,240,2013-07-24 03:54:00